�N����,����,�~����,�C��,���x,�C��,����,���ϕ���,�ő�u�ԕ���,�ő厞����,���˗�,�I�_���x,�n�����x,�ő啗���N��,DTYPE
"22/07/25","00:10",0.0,24.1,80.6,1002.6,321.4,1.3,2.1,339.7,0.00,20.6,25.0,"00:03:52",1
"22/07/25","00:20",0.0,24.0,80.8,1002.9,304.8,1.2,1.9,297.1,0.00,20.5,25.0,"00:13:44",1
"22/07/25","00:30",0.0,24.0,81.0,1003.1,325.7,1.5,2.1,344.1,0.00,20.6,25.0,"00:23:44",1
"22/07/25","00:40",0.0,24.1,81.2,1002.9,326.6,1.1,1.7,330.6,0.00,20.7,25.1,"00:38:00",1
"22/07/25","00:50",0.0,24.1,81.5,1003.1,316.9,1.1,2.6,347.4,0.00,20.8,25.0,"00:49:44",1
"22/07/25","01:00",0.0,24.0,81.6,1003.1,327.6,1.0,2.1,319.0,0.00,20.7,24.7,"00:51:12",1
"22/07/25","01:10",0.0,24.0,81.8,1002.9,296.0,1.0,1.7,313.6,0.00,20.7,24.7,"01:05:52",1
"22/07/25","01:20",0.0,24.0,81.8,1002.9,292.3,1.0,1.6,316.3,0.00,20.7,24.9,"01:17:12",1
"22/07/25","01:30",0.0,24.0,81.7,1003.4,280.3,0.8,1.2,252.1,0.00,20.7,24.9,"01:20:40",1
"22/07/25","01:40",0.0,24.1,81.7,1003.1,311.8,1.2,2.2,310.3,0.00,20.8,24.7,"01:35:44",1
"22/07/25","01:50",0.0,23.9,81.7,1003.4,309.6,0.6,1.7,337.9,0.00,20.6,25.0,"01:40:40",1
"22/07/25","02:00",0.0,23.9,82.3,1003.4,328.8,1.0,1.3,340.9,0.00,20.7,24.8,"01:58:16",1
"22/07/25","02:10",0.0,23.8,83.3,1003.6,324.2,1.1,1.9,312.0,0.00,20.8,24.7,"02:08:56",1
"22/07/25","02:20",0.0,23.7,83.9,1003.4,324.8,1.0,1.6,318.5,0.00,20.9,24.8,"02:10:56",1
"22/07/25","02:30",0.0,23.7,84.2,1003.4,328.9,0.8,1.1,341.7,0.00,20.9,24.7,"02:22:16",1
"22/07/25","02:40",0.0,23.7,84.6,1003.6,328.7,0.8,1.2,349.0,0.00,21.0,24.6,"02:38:56",1
"22/07/25","02:50",0.0,23.7,84.8,1003.6,285.6,0.8,1.6,325.1,0.00,21.0,24.7,"02:49:44",1
"22/07/25","03:00",0.0,23.6,84.8,1003.4,298.0,1.0,1.7,318.2,0.00,20.9,24.7,"02:58:24",1
"22/07/25","03:10",0.0,23.8,84.6,1003.4,289.8,1.0,2.0,335.2,0.00,21.1,24.6,"03:09:44",1
"22/07/25","03:20",0.0,23.9,84.4,1003.1,323.5,1.1,1.6,332.1,0.00,21.1,24.8,"03:10:08",1
"22/07/25","03:30",0.0,23.8,84.3,1003.4,303.8,1.0,1.7,326.7,0.00,21.0,24.6,"03:22:08",1
"22/07/25","03:40",0.0,23.8,84.1,1003.4,291.7,0.8,1.7,318.1,0.00,21.0,24.5,"03:37:12",1
"22/07/25","03:50",0.0,23.8,84.1,1003.4,298.7,0.7,1.0,322.9,0.00,21.0,24.5,"03:42:48",1
"22/07/25","04:00",0.0,23.8,84.1,1003.4,302.5,0.8,1.3,308.0,0.00,21.0,24.7,"03:53:20",1
"22/07/25","04:10",0.0,23.8,84.2,1003.6,302.1,0.7,1.1,310.8,0.00,21.0,24.5,"04:09:12",1
"22/07/25","04:20",0.0,23.9,84.5,1003.8,308.0,0.8,1.1,309.5,0.00,21.2,24.6,"04:11:44",1
"22/07/25","04:30",0.0,23.8,84.8,1003.6,301.5,0.8,1.2,311.3,0.00,21.1,24.7,"04:21:04",1
"22/07/25","04:40",0.0,23.8,84.8,1003.6,310.9,0.8,1.3,311.5,0.00,21.1,24.5,"04:37:04",1
"22/07/25","04:50",0.0,24.0,84.9,1003.8,331.8,1.2,1.8,344.5,0.00,21.3,24.6,"04:48:40",1
"22/07/25","05:00",0.0,23.9,85.0,1003.8,323.7,1.1,1.4,337.8,0.00,21.3,24.4,"04:50:24",1
"22/07/25","05:10",0.0,23.9,85.1,1003.8,305.1,0.8,1.9,335.4,0.00,21.3,24.7,"05:04:08",1
"22/07/25","05:20",0.0,23.8,85.2,1003.8,281.2,0.6,0.8,323.8,0.00,21.2,24.6,"05:10:48",1
"22/07/25","05:30",0.0,23.8,85.2,1003.8,279.1,0.8,1.3,285.1,0.00,21.2,24.5,"05:26:00",1
"22/07/25","05:40",0.0,23.9,85.2,1003.8,330.1,1.1,1.6,310.9,0.00,21.3,24.5,"05:32:16",1
"22/07/25","05:50",0.0,24.0,85.4,1004.1,339.4,1.0,1.3,347.6,0.00,21.4,24.5,"05:41:36",1
"22/07/25","06:00",0.0,23.8,85.7,1004.1,290.0,0.5,1.0,337.2,0.00,21.3,24.6,"05:50:08",1
"22/07/25","06:10",0.0,23.7,85.9,1004.1,293.5,0.7,1.4,312.6,0.00,21.2,24.5,"06:08:16",1
"22/07/25","06:20",0.0,23.9,86.1,1004.5,287.9,0.8,1.6,321.5,0.00,21.5,24.4,"06:10:08",1
"22/07/25","06:30",0.0,24.0,86.2,1004.5,328.2,0.8,1.3,337.1,0.00,21.6,24.6,"06:22:32",1
"22/07/25","06:40",0.0,24.0,86.2,1004.3,320.3,1.0,1.2,305.7,0.00,21.6,24.5,"06:33:28",1
"22/07/25","06:50",0.0,24.1,86.3,1004.8,334.8,0.8,1.1,338.2,0.00,21.7,24.4,"06:49:44",1
"22/07/25","07:00",0.0,24.1,86.3,1004.5,311.3,1.0,1.7,308.0,0.00,21.7,24.4,"06:59:20",1
"22/07/25","07:10",0.0,24.3,86.4,1004.8,303.8,0.8,1.3,343.9,0.01,21.9,24.4,"07:04:48",1
"22/07/25","07:20",0.0,24.5,86.2,1004.8,308.1,1.1,1.6,323.5,0.02,22.1,24.3,"07:11:44",1
"22/07/25","07:30",0.0,24.8,85.9,1004.5,311.1,0.8,1.2,269.1,0.03,22.3,24.5,"07:20:32",1
"22/07/25","07:40",0.0,25.3,85.6,1004.8,297.5,0.8,1.2,274.7,0.05,22.8,24.4,"07:37:36",1
"22/07/25","07:50",0.0,25.5,85.0,1004.8,273.6,0.7,1.1,250.7,0.06,22.8,24.3,"07:42:08",1
"22/07/25","08:00",0.0,25.8,84.3,1004.8,298.7,0.8,1.1,313.2,0.06,23.0,24.5,"07:52:40",1
"22/07/25","08:10",0.0,26.5,83.8,1004.8,290.7,0.6,1.2,322.6,0.11,23.6,24.4,"08:01:52",1
"22/07/25","08:20",0.0,27.0,81.9,1004.5,333.2,0.6,1.2,312.0,0.13,23.7,24.3,"08:16:08",1
"22/07/25","08:30",0.0,27.2,80.1,1004.3,312.2,0.7,1.3,343.1,0.11,23.5,24.2,"08:27:52",1
"22/07/25","08:40",0.0,27.7,78.5,1004.3,343.2,0.5,1.2,310.1,0.16,23.7,24.4,"08:32:48",1
"22/07/25","08:50",0.0,28.5,76.5,1004.1,293.2,0.5,1.1,247.8,0.26,24.0,24.5,"08:42:08",1
"22/07/25","09:00",0.0,29.3,73.2,1004.5,240.5,0.3,1.6,236.4,0.29,24.0,24.6,"08:57:36",1
"22/07/25","09:10",0.0,29.7,71.2,1004.8,20.5,0.7,2.2,350.1,0.28,24.0,24.7,"09:03:20",1
"22/07/25","09:20",0.0,30.6,70.1,1005.0,144.9,0.8,1.9,125.7,0.35,24.6,24.6,"09:18:48",1
"22/07/25","09:30",0.0,30.8,68.1,1005.5,124.3,0.8,2.8,158.5,0.39,24.3,24.3,"09:29:44",1
"22/07/25","09:40",0.0,30.9,67.7,1005.2,140.6,1.0,2.5,124.0,0.39,24.3,24.7,"09:30:16",1
"22/07/25","09:50",0.0,31.2,66.6,1005.5,104.4,0.8,1.8,127.1,0.35,24.3,24.6,"09:44:00",1
"22/07/25","10:00",0.0,31.0,67.2,1005.5,137.1,0.8,2.7,149.4,0.28,24.2,24.4,"09:53:20",1
"22/07/25","10:10",0.0,31.0,67.1,1005.2,123.1,1.0,1.8,124.3,0.33,24.2,24.5,"10:04:32",1
"22/07/25","10:20",0.0,31.5,63.9,1005.7,173.6,1.5,2.9,213.4,0.50,23.9,24.7,"10:14:56",1
"22/07/25","10:30",0.0,31.1,64.8,1005.5,173.8,1.2,2.6,130.9,0.35,23.7,24.7,"10:27:12",1
"22/07/25","10:40",0.0,31.9,64.9,1005.7,149.8,1.2,4.3,237.4,0.50,24.5,24.8,"10:36:48",1
"22/07/25","10:50",0.0,32.1,63.1,1005.7,158.6,1.6,3.4,134.8,0.51,24.2,24.7,"10:43:20",1
"22/07/25","11:00",0.0,32.3,61.1,1006.0,184.1,1.2,3.1,194.8,0.53,23.9,24.7,"10:54:00",1
"22/07/25","11:10",0.0,32.1,61.0,1006.0,315.7,1.5,2.9,341.2,0.55,23.7,24.8,"11:03:44",1
"22/07/25","11:20",0.0,32.4,59.8,1005.7,185.5,1.6,4.1,213.0,0.56,23.6,24.8,"11:17:20",1
"22/07/25","11:30",0.0,32.7,58.9,1005.5,221.1,0.8,2.6,225.0,0.54,23.6,25.0,"11:28:16",1
"22/07/25","11:40",0.0,33.1,61.0,1006.0,131.2,1.3,2.5,128.4,0.55,24.6,24.9,"11:37:28",1
"22/07/25","11:50",0.0,33.1,59.8,1005.7,234.1,1.5,3.5,196.9,0.56,24.3,25.0,"11:47:44",1
"22/07/25","12:00",0.0,33.8,58.0,1005.7,170.1,1.0,2.2,180.9,0.57,24.4,25.1,"11:52:56",1
"22/07/25","12:10",0.0,33.7,55.9,1005.7,242.5,1.1,2.7,234.6,0.58,23.7,25.1,"12:03:52",1
"22/07/25","12:20",0.0,33.7,58.3,1005.2,162.8,1.5,3.6,142.5,0.58,24.4,25.2,"12:18:00",1
"22/07/25","12:30",0.0,34.2,57.4,1005.5,141.9,0.8,1.7,187.9,0.58,24.6,25.2,"12:23:12",1
"22/07/25","12:40",0.0,33.8,55.4,1005.7,185.0,1.3,3.6,201.0,0.40,23.7,25.2,"12:35:36",1
"22/07/25","12:50",0.0,33.9,57.6,1005.2,183.1,0.8,3.3,155.2,0.39,24.4,25.4,"12:49:44",1
"22/07/25","13:00",0.0,33.6,58.3,1005.2,165.4,1.7,2.8,182.0,0.50,24.3,25.2,"12:51:28",1
"22/07/25","13:10",0.0,34.5,56.4,1005.0,190.8,1.3,3.5,248.5,0.63,24.6,25.4,"13:00:32",1
"22/07/25","13:20",0.0,34.8,54.8,1005.2,206.0,1.2,3.5,226.0,0.50,24.4,25.3,"13:19:44",1
"22/07/25","13:30",0.0,35.1,56.5,1005.2,207.8,1.2,3.4,215.6,0.57,25.2,25.5,"13:28:48",1
"22/07/25","13:40",0.0,34.0,56.6,1005.0,201.5,1.8,3.7,235.5,0.35,24.2,25.6,"13:33:36",1
"22/07/25","13:50",0.0,34.5,57.6,1004.8,176.5,1.5,4.7,220.7,0.47,25.0,25.7,"13:47:44",1
"22/07/25","14:00",0.0,34.9,57.0,1004.5,209.4,1.6,3.3,234.4,0.54,25.2,25.4,"13:50:16",1
"22/07/25","14:10",0.0,34.1,57.7,1004.8,154.0,1.5,2.9,183.3,0.30,24.6,25.3,"14:07:04",1
"22/07/25","14:20",0.0,34.0,59.1,1004.3,189.4,1.3,3.4,217.2,0.29,24.9,25.6,"14:12:24",1
"22/07/25","14:30",0.0,34.8,57.1,1004.5,242.6,1.1,2.7,238.6,0.48,25.1,25.7,"14:27:52",1
"22/07/25","14:40",0.0,35.1,58.5,1004.1,131.3,1.3,3.5,142.3,0.49,25.8,25.6,"14:31:04",1
"22/07/25","14:50",0.0,35.3,56.9,1004.5,157.7,1.2,2.7,131.8,0.47,25.5,25.7,"14:40:08",1
"22/07/25","15:00",0.0,35.3,56.2,1004.3,192.7,1.7,3.7,217.2,0.46,25.3,25.9,"14:58:08",1
"22/07/25","15:10",0.0,35.7,55.7,1004.3,206.9,1.3,3.2,236.5,0.48,25.5,25.7,"15:03:44",1
"22/07/25","15:20",0.0,35.8,52.7,1004.3,163.8,1.3,4.7,248.4,0.46,24.7,25.8,"15:17:36",1
"22/07/25","15:30",0.0,35.3,53.0,1004.1,333.2,1.6,4.0,357.7,0.40,24.3,25.8,"15:29:04",1
"22/07/25","15:40",0.0,35.4,53.8,1004.1,333.1,1.7,4.0,349.2,0.42,24.6,25.9,"15:34:40",1
"22/07/25","15:50",0.0,35.6,52.9,1004.1,283.3,1.2,4.1,337.3,0.39,24.5,26.0,"15:46:40",1
"22/07/25","16:00",0.0,35.5,51.8,1004.3,283.5,1.1,2.9,235.1,0.38,24.1,26.0,"15:50:02",1
"22/07/25","16:10",0.0,35.5,53.3,1004.1,299.8,1.0,3.3,237.2,0.34,24.6,26.2,"16:00:24",1
"22/07/25","16:20",0.0,35.4,53.5,1004.1,267.9,1.3,3.1,226.2,0.31,24.6,26.0,"16:14:40",1
"22/07/25","16:30",0.0,35.3,54.2,1004.1,260.8,1.2,3.4,235.2,0.28,24.7,26.1,"16:25:20",1
"22/07/25","16:40",0.0,35.0,53.9,1004.1,260.6,1.5,4.7,239.0,0.26,24.3,26.2,"16:39:44",1
"22/07/25","16:50",0.0,34.9,55.9,1004.1,243.7,1.1,3.1,212.9,0.24,24.8,26.3,"16:44:24",1
"22/07/25","17:00",0.0,34.9,55.4,1003.8,250.3,1.3,4.0,232.5,0.22,24.7,26.4,"16:52:16",1
"22/07/25","17:10",0.0,34.9,55.8,1003.8,263.8,1.1,3.4,341.8,0.20,24.8,26.3,"17:05:16",1
"22/07/25","17:20",0.0,34.7,56.0,1003.6,320.2,1.3,3.5,231.4,0.18,24.7,26.4,"17:10:08",1
"22/07/25","17:30",0.0,34.7,56.8,1003.4,312.8,0.8,2.5,344.0,0.16,24.9,26.5,"17:20:24",1
"22/07/25","17:40",0.0,34.7,56.7,1003.4,315.4,0.8,2.1,330.8,0.15,24.9,26.4,"17:32:48",1
"22/07/25","17:50",0.0,34.3,56.1,1003.4,297.5,1.0,2.5,354.5,0.10,24.3,26.4,"17:40:08",1
"22/07/25","18:00",0.0,34.2,56.3,1003.1,311.9,1.2,3.4,340.9,0.05,24.3,26.2,"17:50:32",1
"22/07/25","18:10",0.0,34.0,56.9,1002.9,320.7,1.0,2.4,325.0,0.04,24.3,26.5,"18:02:00",1
"22/07/25","18:20",0.0,34.0,60.0,1002.9,334.5,1.1,2.7,352.1,0.03,25.2,26.3,"18:16:08",1
"22/07/25","18:30",0.0,33.6,64.2,1002.6,350.5,1.2,2.4,345.2,0.03,25.9,26.7,"18:29:36",1
"22/07/25","18:40",0.0,32.9,66.4,1002.4,351.1,1.1,1.9,340.8,0.03,25.8,26.5,"18:31:44",1
"22/07/25","18:50",0.0,32.3,68.1,1002.4,351.7,1.0,1.8,353.6,0.02,25.7,26.6,"18:48:00",1
"22/07/25","19:00",0.0,32.2,69.8,1002.4,14.0,0.7,1.6,352.8,0.02,26.0,26.4,"18:53:12",1
"22/07/25","19:10",0.0,31.5,69.9,1002.2,5.4,0.6,1.3,2.5,0.01,25.4,26.4,"19:04:56",1
"22/07/25","19:20",0.0,31.7,70.4,1001.9,0.8,0.8,1.7,9.2,0.00,25.7,26.7,"19:12:08",1
"22/07/25","19:30",0.0,31.1,72.4,1001.7,347.4,1.0,2.0,351.2,0.00,25.6,26.6,"19:24:24",1
"22/07/25","19:40",0.0,30.6,73.5,1001.5,330.1,1.1,1.8,351.6,0.00,25.4,26.5,"19:37:52",1
"22/07/25","19:50",0.0,30.4,74.0,1001.5,306.2,1.1,1.9,328.4,0.00,25.3,26.4,"19:45:52",1
"22/07/25","20:00",0.0,30.1,74.8,1000.8,285.3,0.8,1.8,335.0,0.00,25.2,26.4,"19:57:12",1
"22/07/25","20:10",0.0,29.7,75.8,1001.0,272.3,0.6,1.6,235.0,0.00,25.0,26.6,"20:09:20",1
"22/07/25","20:20",0.0,29.5,76.6,1000.8,299.0,1.0,1.9,329.9,0.00,25.0,26.3,"20:17:28",1
"22/07/25","20:30",0.0,29.3,77.4,1001.0,265.8,0.8,2.0,249.5,0.00,25.0,26.3,"20:29:28",1
"22/07/25","20:40",0.0,29.1,78.2,1001.5,311.1,1.0,1.7,318.8,0.00,25.0,26.2,"20:32:40",1
"22/07/25","20:50",0.0,28.8,79.1,1001.7,320.1,1.0,1.7,323.1,0.00,24.9,26.4,"20:47:52",1
"22/07/25","21:00",0.0,28.8,79.5,1001.7,333.6,1.3,2.6,334.9,0.00,24.9,26.3,"20:59:28",1
"22/07/25","21:10",0.0,28.8,79.6,1001.9,341.9,1.5,2.2,347.6,0.00,25.0,26.4,"21:01:20",1
"22/07/25","21:20",0.0,28.8,79.9,1001.7,341.1,1.0,1.7,348.2,0.00,25.0,26.3,"21:15:12",1
"22/07/25","21:30",0.0,28.8,79.9,1001.9,352.5,1.0,1.4,352.9,0.00,25.0,26.4,"21:24:24",1
"22/07/25","21:40",0.0,28.7,80.1,1002.2,301.7,0.8,1.3,344.2,0.00,25.0,26.3,"21:33:52",1
"22/07/25","21:50",0.0,28.3,80.5,1002.4,310.8,0.8,1.6,339.5,0.00,24.7,26.1,"21:43:12",1
"22/07/25","22:00",0.0,28.2,81.0,1002.4,316.6,1.0,1.8,315.0,0.00,24.7,26.3,"21:54:08",1
"22/07/25","22:10",0.0,28.0,81.7,1002.6,338.1,1.1,2.5,344.2,0.00,24.6,26.3,"22:04:32",1
"22/07/25","22:20",0.0,27.9,82.3,1002.4,284.1,0.7,1.4,348.1,0.00,24.6,26.2,"22:11:36",1
"22/07/25","22:30",0.0,27.9,82.6,1002.9,282.3,0.8,1.6,333.2,0.00,24.7,26.3,"22:23:36",1
"22/07/25","22:40",0.0,27.8,82.8,1002.4,291.3,0.7,1.8,344.7,0.00,24.6,26.1,"22:38:40",1
"22/07/25","22:50",0.0,27.6,83.4,1002.6,322.4,0.8,1.3,340.3,0.00,24.6,26.3,"22:42:00",1
"22/07/25","23:00",0.0,27.4,83.9,1002.6,289.4,0.7,1.4,318.6,0.00,24.5,26.3,"22:50:16",1
"22/07/25","23:10",0.0,27.2,84.4,1002.6,323.3,0.8,1.4,321.1,0.00,24.4,26.2,"23:08:48",1
"22/07/25","23:20",0.0,27.0,84.7,1002.4,282.6,0.6,1.0,255.0,0.00,24.2,26.2,"23:15:12",1
"22/07/25","23:30",0.0,27.0,85.1,1003.1,300.3,1.0,1.6,331.3,0.00,24.3,26.2,"23:25:36",1
"22/07/25","23:40",0.0,26.9,85.3,1002.9,283.6,0.7,1.2,261.0,0.00,24.3,26.0,"23:30:02",1
"22/07/25","23:50",0.0,26.9,85.4,1002.9,299.0,1.1,2.0,320.3,0.00,24.3,26.1,"23:47:36",1
"22/07/25","24:00",0.0,26.8,85.4,1003.1,304.6,1.0,1.4,309.8,0.00,24.2,26.0,"23:54:32",1
